GW2024 Weather Reports


Display with metric or nautical units.
time (UTC)temp
F
wind
direction
speed
MPH
gust
MPH
rain 1hr
in
rain 24hr
in
rain mn
in
humidity
%
barometer
mb
20260510160630 85 256 2.0 3.0 0.00 0.00 0.00 71 1017.2
20260510160130 86 273 2.0 2.0 0.00 0.00 0.00 69 1017.4
20260510155627 86 263 2.0 2.0 0.00 0.00 0.00 70 1017.3
20260510155123 85 253 2.0 3.0 0.00 0.00 0.00 71 1017.4
20260510154618 85 252 1.0 2.0 0.00 0.00 0.00 73 1017.3
20260510154114 85 266 2.0 2.0 0.00 0.00 0.00 73 1017.3
20260510153609 85 280 3.0 3.0 0.00 0.00 0.00 70 1017.4
20260510153106 85 284 2.0 3.0 0.00 0.00 0.00 75 1017.4
20260510152603 84 211 2.0 3.0 0.00 0.00 0.00 74 1017.5
20260510152059 84 271 2.0 3.0 0.00 0.00 0.00 74 1017.4
20260510151555 84 253 2.0 3.0 0.00 0.00 0.00 72 1017.3
20260510151053 84 273 2.0 3.0 0.00 0.00 0.00 72 1017.5
20260510150548 84 227 3.0 4.0 0.00 0.00 0.00 73 1017.4
20260510150044 83 224 1.0 2.0 0.00 0.00 0.00 77 1017.4
20260510145541 82 269 0.0 2.0 0.00 0.00 0.00 77 1017.2
20260510145038 82 280 1.0 3.0 0.00 0.00 0.00 76 1017.3
20260510144534 82 262 1.0 2.0 0.00 0.00 0.00 77 1017.2
20260510144030 83 274 2.0 2.0 0.00 0.00 0.00 77 1017.3
20260510143526 82 279 2.0 3.0 0.00 0.00 0.00 79 1017.3
20260510143023 83 246 2.0 3.0 0.00 0.00 0.00 77 1017.4
20260510142519 83 269 1.0 2.0 0.00 0.00 0.00 76 1017.2
20260510142016 82 284 2.0 2.0 0.00 0.00 0.00 79 1017.3
20260510141512 82 236 1.0 2.0 0.00 0.00 0.00 81 1017.1
20260510141009 82 263 1.0 2.0 0.00 0.00 0.00 80 1017.0
20260510140505 81 273 2.0 2.0 0.00 0.00 0.00 81 1017.0
20260510140000 81 253 1.0 2.0 0.00 0.00 0.00 81 1016.8
20260510135455 81 264 1.0 3.0 0.00 0.00 0.00 83 1016.8
20260510134953 80 253 1.0 1.0 0.00 0.00 0.00 86 1016.9
20260510134450 80 243 1.0 2.0 0.00 0.00 0.00 87 1016.6
20260510133947 78 237 1.0 2.0 0.00 0.00 0.00 89 1016.8
20260510133442 78 246 2.0 2.0 0.00 0.00 0.00 93 1016.8
20260510132938 77 271 0.0 1.0 0.00 0.00 0.00 94 1016.8
20260510132436 77 233 2.0 2.0 0.00 0.00 0.00 94 1016.9
20260510131932 76 162 0.0 3.0 0.00 0.00 0.00 96 1016.7
20260510131430 76 235 1.0 2.0 0.00 0.00 0.00 97 1016.5
20260510130926 76 235 1.0 2.0 0.00 0.00 0.00 98 1016.7
20260510130424 75 269 0.0 2.0 0.00 0.00 0.00 98 1016.4
20260510125921 75 96 0.0 2.0 0.00 0.00 0.00 98 1016.5
20260510125416 75 234 2.0 3.0 0.00 0.00 0.00 98 1016.7
20260510124914 75 285 0.0 1.0 0.00 0.00 0.00 98 1016.3
20260510124410 75 212 0.0 2.0 0.00 0.00 0.00 98 1016.4
20260510123906 75 256 0.0 2.0 0.00 0.00 0.00 98 1016.4
20260510123402 75 248 2.0 2.0 0.00 0.00 0.00 98 1016.2
20260510122858 75 203 0.0 2.0 0.00 0.00 0.00 98 1016.2
20260510122354 74 246 0.0 2.0 0.00 0.00 0.00 98 1016.1
20260510121850 74 242 0.0 1.0 0.00 0.00 0.00 98 1016.1
20260510121348 74 230 0.0 1.0 0.00 0.00 0.00 98 1016.0
20260510120845 74 269 0.0 0.0 0.00 0.00 0.00 98 1015.9
20260510120342 73 269 0.0 1.0 0.00 0.00 0.00 98 1016.1
20260510115838 73 256 0.0 1.0 0.00 0.00 0.00 98 1016.0
20260510115335 73 225 0.0 1.0 0.00 0.00 0.00 98 1015.9
20260510114830 73 230 0.0 0.0 0.00 0.00 0.00 98 1015.6
20260510114328 73 242 0.0 0.0 0.00 0.00 0.00 98 1015.8
20260510113828 72 242 0.0 0.0 0.00 0.00 0.00 98 1015.6
20260510113325 71 235 0.0 1.0 0.00 0.00 0.00 98 1015.6
20260510112822 71 212 0.0 1.0 0.00 0.00 0.00 98 1015.6
20260510112318 71 224 0.0 1.0 0.00 0.00 0.00 98 1015.4
20260510111814 71 242 0.0 1.0 0.00 0.00 0.00 98 1015.3
20260510111312 71 229 0.0 0.0 0.00 0.00 0.00 98 1015.1
20260510110811 71 230 0.0 0.0 0.00 0.00 0.00 98 1015.1
20260510110309 71 230 0.0 1.0 0.00 0.00 0.00 98 1015.5
20260510105804 71 235 0.0 0.0 0.00 0.00 0.00 98 1015.2
20260510105259 71 225 1.0 1.0 0.00 0.00 0.00 98 1015.2
20260510104756 71 164 0.0 1.0 0.00 0.00 0.00 98 1015.0
20260510104254 71 242 0.0 0.0 0.00 0.00 0.00 98 1014.9
20260510103749 71 254 0.0 0.0 0.00 0.00 0.00 98 1014.8
20260510103246 71 235 0.0 1.0 0.00 0.00 0.00 98 1014.7
20260510102746 71 212 0.0 0.0 0.00 0.00 0.00 98 1014.7
20260510102242 71 257 0.0 0.0 0.00 0.00 0.00 98 1014.7
20260510101740 71 249 0.0 0.0 0.00 0.00 0.00 98 1014.7
20260510101239 71 246 0.0 0.0 0.00 0.00 0.00 98 1014.4
20260510100733 71 242 0.0 0.0 0.00 0.00 0.00 98 1014.6
20260510100232 71 230 0.0 1.0 0.00 0.00 0.00 98 1014.3
20260510095727 71 218 0.0 0.0 0.00 0.00 0.00 98 1014.3
20260510095222 71 235 0.0 0.0 0.00 0.00 0.00 98 1014.3
20260510094721 71 246 0.0 0.0 0.00 0.00 0.00 98 1014.5
20260510094217 71 230 0.0 0.0 0.00 0.00 0.00 98 1014.4
20260510093713 71 202 0.0 1.0 0.00 0.00 0.00 98 1014.3
20260510093211 71 230 0.0 1.0 0.00 0.00 0.00 98 1014.3
20260510092707 72 217 0.0 1.0 0.00 0.00 0.00 98 1014.1
20260510092203 72 235 0.0 0.0 0.00 0.00 0.00 98 1014.1
20260510091658 72 269 0.0 0.0 0.00 0.00 0.00 98 1013.9
20260510091155 72 240 0.0 1.0 0.00 0.00 0.00 98 1014.1
20260510090652 72 242 0.0 0.0 0.00 0.00 0.00 98 1014.0
20260510090149 72 242 0.0 2.0 0.00 0.00 0.00 98 1014.0
20260510085643 72 218 0.0 2.0 0.00 0.00 0.00 98 1014.0
20260510085139 72 269 0.0 1.0 0.00 0.00 0.00 98 1013.9
20260510084635 72 217 0.0 0.0 0.00 0.00 0.00 98 1013.8
20260510084132 72 233 0.0 1.0 0.00 0.00 0.00 98 1013.7
20260510083629 72 224 0.0 0.0 0.00 0.00 0.00 98 1013.7
20260510083125 72 212 0.0 1.0 0.00 0.00 0.00 98 1013.7
20260510082621 72 293 0.0 0.0 0.00 0.00 0.00 98 1013.6
20260510082117 72 223 0.0 1.0 0.00 0.00 0.00 98 1013.6
20260510081611 72 258 0.0 2.0 0.00 0.00 0.00 98 1013.5
20260510081108 72 212 0.0 0.0 0.00 0.00 0.00 98 1013.5
20260510080602 72 257 0.0 1.0 0.00 0.00 0.00 98 1013.5
20260510080059 72 217 0.0 0.0 0.00 0.00 0.00 98 1013.4
20260510075556 72 242 0.0 1.0 0.00 0.00 0.00 98 1013.5
20260510075053 72 269 0.0 0.0 0.00 0.00 0.00 98 1013.5
20260510074550 72 230 0.0 1.0 0.00 0.00 0.00 98 1013.5
20260510074045 72 230 0.0 1.0 0.00 0.00 0.00 98 1013.8
20260510073542 72 230 0.0 1.0 0.00 0.00 0.00 98 1013.8
20260510073039 72 240 0.0 0.0 0.00 0.00 0.00 98 1013.7
20260510072536 71 235 0.0 0.0 0.00 0.00 0.00 98 1013.9
20260510072031 72 212 0.0 0.0 0.00 0.00 0.00 98 1013.7
20260510071527 72 230 0.0 0.0 0.00 0.00 0.00 98 1013.8
20260510071026 72 229 0.0 0.0 0.00 0.00 0.00 98 1013.8
20260510070522 72 235 0.0 0.0 0.00 0.00 0.00 98 1013.9
20260510070019 72 217 0.0 0.0 0.00 0.00 0.00 98 1014.1
20260510065516 72 217 0.0 0.0 0.00 0.00 0.00 98 1013.9
20260510065012 72 242 0.0 1.0 0.00 0.00 0.00 98 1014.1
20260510064509 72 217 0.0 0.0 0.00 0.00 0.00 98 1014.0
20260510064005 72 249 0.0 0.0 0.00 0.00 0.00 98 1014.0
20260510063502 72 242 0.0 0.0 0.00 0.00 0.00 98 1014.5
20260510062959 72 239 0.0 1.0 0.00 0.00 0.00 98 1014.5
20260510062454 72 230 0.0 0.0 0.00 0.00 0.00 98 1014.7
20260510061944 72 236 0.0 1.0 0.00 0.00 0.00 98 1014.4
20260510061441 72 126 0.0 1.0 0.00 0.00 0.00 98 1014.6
20260510060937 72 216 1.0 1.0 0.00 0.00 0.00 98 1014.6
20260510060435 72 113 0.0 1.0 0.00 0.00 0.00 98 1014.8
20260510055930 72 89 0.0 1.0 0.00 0.00 0.00 98 1014.8
20260510055426 72 235 0.0 2.0 0.00 0.00 0.00 98 1014.9
20260510054919 72 110 1.0 2.0 0.00 0.00 0.00 98 1014.9
20260510054414 72 257 0.0 1.0 0.00 0.00 0.00 98 1014.8
20260510053909 72 78 0.0 0.0 0.00 0.00 0.00 98 1014.9
20260510053405 71 242 0.0 1.0 0.00 0.00 0.00 98 1015.1
20260510052902 71 242 0.0 0.0 0.00 0.00 0.00 98 1015.0
20260510052358 71 189 0.0 1.0 0.00 0.00 0.00 97 1015.2
20260510051854 71 195 0.0 0.0 0.00 0.00 0.00 97 1015.0
20260510051350 71 180 0.0 0.0 0.00 0.00 0.00 97 1015.1
20260510050847 71 229 0.0 1.0 0.00 0.00 0.00 97 1015.4
20260510050344 71 230 0.0 0.0 0.00 0.00 0.00 97 1015.4
20260510045841 71 239 0.0 0.0 0.00 0.00 0.00 97 1015.5
20260510045338 71 226 0.0 0.0 0.00 0.00 0.00 97 1015.4
20260510044835 71 217 0.0 1.0 0.00 0.00 0.00 97 1015.5
20260510044332 71 214 0.0 1.0 0.00 0.00 0.00 97 1015.3
20260510043828 71 230 0.0 0.0 0.00 0.00 0.00 97 1015.6
20260510043324 72 230 0.0 0.0 0.00 0.00 0.00 97 1015.6
20260510042822 72 217 0.0 1.0 0.00 0.00 0.00 97 1015.5
20260510042318 72 230 0.0 0.0 0.00 0.00 0.00 97 1015.6
20260510041814 72 217 0.0 0.0 0.00 0.00 0.00 97 1015.4
20260510041312 72 212 0.0 0.0 0.00 0.00 0.00 97 1015.6
20260510040809 72 216 0.0 1.0 0.00 0.00 0.00 97 1015.5
20260510040305 72 230 0.0 0.0 0.00 0.00 0.00 97 1015.4
20260510035801 72 212 0.0 0.0 0.00 0.26 0.26 97 1015.6
20260510035257 72 230 0.0 0.0 0.00 0.26 0.26 97 1015.4
20260510034753 72 212 0.0 0.0 0.00 0.26 0.26 97 1015.7
20260510034250 72 240 0.0 0.0 0.00 0.26 0.26 97 1015.8
20260510033746 72 230 0.0 0.0 0.00 0.26 0.26 97 1015.6
20260510033239 72 237 0.0 0.0 0.00 0.26 0.26 97 1015.5
20260510032734 72 242 0.0 0.0 0.00 0.26 0.26 97 1015.4
20260510032231 72 242 0.0 0.0 0.00 0.26 0.26 97 1015.6
20260510031726 72 256 0.0 0.0 0.00 0.26 0.26 97 1015.5
20260510031222 72 242 0.0 0.0 0.00 0.26 0.26 97 1015.7
20260510030722 73 242 0.0 1.0 0.00 0.26 0.26 97 1015.6
20260510030219 73 242 0.0 0.0 0.00 0.26 0.26 97 1015.4
20260510025717 73 212 0.0 1.0 0.00 0.26 0.26 97 1015.4
20260510025213 73 246 0.0 0.0 0.00 0.26 0.26 97 1015.7
20260510024710 73 243 0.0 1.0 0.00 0.26 0.26 97 1015.3
20260510024207 73 247 0.0 0.0 0.00 0.26 0.26 97 1015.4
20260510023702 73 202 0.0 1.0 0.00 0.26 0.26 97 1015.1
20260510023200 73 230 0.0 1.0 0.00 0.26 0.26 97 1015.3
20260510022655 73 222 0.0 2.0 0.00 0.26 0.26 97 1015.0
20260510022150 73 150 0.0 0.0 0.00 0.26 0.26 97 1015.2
20260510021646 73 246 0.0 0.0 0.00 0.26 0.26 97 1015.3
20260510021143 73 256 0.0 2.0 0.00 0.26 0.26 97 1015.3
20260510020638 73 246 0.0 0.0 0.00 0.26 0.26 97 1014.8
20260510020133 73 230 0.0 1.0 0.00 0.26 0.26 97 1015.0
20260510015629 73 269 0.0 0.0 0.00 0.26 0.26 97 1014.9
20260510015126 73 243 0.0 2.0 0.00 0.26 0.26 97 1014.8
20260510014621 73 143 0.0 1.0 0.00 0.26 0.26 96 1014.5
20260510014119 73 230 0.0 1.0 0.00 0.26 0.26 97 1014.8
20260510013614 73 235 0.0 1.0 0.00 0.26 0.26 96 1014.8
20260510013109 73 201 0.0 2.0 0.00 0.26 0.26 96 1014.7
20260510012608 73 241 0.0 0.0 0.00 0.26 0.26 96 1014.5
20260510012106 73 256 0.0 1.0 0.00 0.26 0.26 96 1014.7
20260510011605 73 242 0.0 2.0 0.00 0.26 0.26 96 1014.6
20260510011101 73 209 2.0 2.0 0.00 0.26 0.26 96 1014.6
20260510010558 73 214 0.0 1.0 0.00 0.26 0.26 96 1014.7
20260510010055 73 229 0.0 1.0 0.00 0.26 0.26 96 1014.6
20260510005550 73 269 0.0 0.0 0.00 0.26 0.26 96 1014.6
20260510005048 73 219 1.0 2.0 0.00 0.26 0.26 96 1014.6
20260510004546 73 195 0.0 1.0 0.00 0.26 0.26 96 1014.5
20260510004043 73 230 0.0 1.0 0.00 0.26 0.26 95 1014.3
20260510003540 73 242 0.0 0.0 0.00 0.26 0.26 95 1014.3
20260510003035 73 232 0.0 1.0 0.00 0.26 0.26 95 1014.4
20260510002531 73 246 0.0 0.0 0.00 0.26 0.26 95 1014.2
20260510002028 73 173 0.0 0.0 0.00 0.26 0.26 95 1014.2
20260510001525 73 245 0.0 1.0 0.00 0.26 0.26 95 1014.2
20260510001024 73 246 0.0 1.0 0.00 0.26 0.26 95 1014.2
20260510000519 73 215 0.0 1.0 0.00 0.26 0.26 95 1013.8
20260510000016 73 230 0.0 0.0 0.00 0.26 0.26 95 1013.9
20260509235513 73 235 0.0 1.0 0.00 0.26 0.26 95 1013.8
20260509235009 74 245 0.0 1.0 0.00 0.26 0.26 94 1013.6
20260509234506 74 238 0.0 0.0 0.00 0.26 0.26 94 1013.6
20260509234004 74 245 0.0 1.0 0.00 0.26 0.26 94 1013.8
20260509233500 74 199 2.0 2.0 0.00 0.26 0.26 94 1014.0
20260509232956 74 196 1.0 1.0 0.00 0.26 0.26 94 1013.7
20260509232455 74 230 0.0 2.0 0.00 0.26 0.26 94 1013.7
20260509231950 74 230 0.0 1.0 0.00 0.26 0.26 94 1013.6
20260509231447 74 242 0.0 2.0 0.00 0.26 0.26 93 1013.7
20260509230945 74 230 0.0 1.0 0.00 0.26 0.26 93 1013.7
20260509230441 74 242 0.0 1.0 0.00 0.26 0.26 93 1013.5
20260509225938 74 242 0.0 1.0 0.00 0.26 0.26 93 1013.5
20260509225434 75 107 0.0 2.0 0.00 0.26 0.26 94 1013.4
20260509224930 75 307 0.0 1.0 0.00 0.26 0.26 94 1013.5
20260509224425 74 230 0.0 0.0 0.00 0.26 0.26 94 1013.3
20260509223923 74 22 0.0 1.0 0.00 0.26 0.26 94 1013.4
20260509223420 74 217 0.0 1.0 0.00 0.26 0.26 94 1013.3
20260509222917 74 349 1.0 2.0 0.00 0.26 0.26 94 1013.4
20260509222412 74 50 0.0 1.0 0.00 0.26 0.26 95 1013.4
20260509221908 74 218 0.0 1.0 0.00 0.26 0.26 95 1013.3
20260509221405 74 315 0.0 1.0 0.00 0.26 0.26 95 1013.0
20260509220901 74 269 0.0 1.0 0.00 0.26 0.26 95 1013.2
20260509220357 74 316 0.0 1.0 0.00 0.26 0.26 95 1013.3
20260509215852 74 0 0.0 2.0 0.00 0.26 0.26 95 1013.3
20260509215344 74 327 1.0 2.0 0.00 0.26 0.26 94 1013.3
20260509214841 74 317 0.0 2.0 0.00 0.26 0.26 94 1013.3
20260509214338 74 229 0.0 1.0 0.00 0.26 0.26 95 1013.4
20260509213835 74 242 0.0 1.0 0.00 0.26 0.26 95 1013.3
20260509213330 74 247 0.0 0.0 0.00 0.26 0.26 95 1013.2
20260509212828 74 269 0.0 1.0 0.00 0.26 0.26 95 1013.2
20260509212326 73 232 0.0 0.0 0.00 0.26 0.26 94 1013.2
20260509211821 74 251 0.0 1.0 0.00 0.26 0.26 94 1013.5
20260509211317 74 230 0.0 1.0 0.00 0.26 0.26 95 1013.3
20260509210814 74 230 0.0 1.0 0.00 0.26 0.26 95 1013.4
20260509210312 75 343 1.0 2.0 0.00 0.26 0.26 95 1013.1
20260509205811 75 239 1.0 2.0 0.00 0.26 0.26 95 1013.3
20260509205307 75 292 1.0 2.0 0.00 0.26 0.26 96 1013.1
20260509204803 75 255 0.0 1.0 0.00 0.26 0.26 95 1013.2
20260509204259 75 278 1.0 2.0 0.00 0.26 0.26 95 1013.3
20260509203755 75 120 0.0 2.0 0.00 0.26 0.26 95 1013.3
20260509203253 75 185 0.0 1.0 0.02 0.26 0.26 95 1013.5
20260509202748 75 275 0.0 1.0 0.02 0.26 0.26 95 1013.2
20260509202244 75 198 2.0 2.0 0.00 0.26 0.26 95 1013.1
20260509201738 75 232 0.0 2.0 0.00 0.26 0.26 94 1013.0
20260509201235 74 337 0.0 1.0 0.00 0.26 0.26 94 1013.0
20260509200731 74 347 0.0 4.0 0.21 0.26 0.26 93 1013.1
20260509200227 74 77 0.0 3.0 1.35 0.26 0.26 92 1013.2
20260509195723 75 1 4.0 5.0 1.16 0.20 0.20 89 1013.6
20260509195218 79 274 4.0 5.0 0.02 0.01 0.01 85 1013.8
20260509194713 80 254 1.0 2.0 0.05 0.01 0.01 83 1012.9
20260509194210 81 282 1.0 3.0 0.05 0.01 0.01 81 1012.8
20260509193707 82 329 0.0 2.0 0.00 0.00 0.00 76 1013.0
20260509193206 83 311 0.0 2.0 0.00 0.00 0.00 69 1012.8
20260509192703 83 276 2.0 2.0 0.00 0.00 0.00 67 1012.8
20260509192158 84 255 0.0 3.0 0.00 0.00 0.00 66 1012.3
20260509191654 85 288 1.0 1.0 0.00 0.00 0.00 65 1012.5
20260509191150 85 266 1.0 2.0 0.00 0.00 0.00 63 1012.6
20260509190647 85 255 0.0 2.0 0.00 0.00 0.00 64 1012.4
20260509190144 85 246 0.0 2.0 0.00 0.00 0.00 62 1012.6
20260509185642 86 282 1.0 2.0 0.00 0.00 0.00 62 1012.7
20260509185137 86 288 2.0 2.0 0.00 0.00 0.00 64 1012.9
20260509184635 86 238 0.0 2.0 0.00 0.00 0.00 64 1012.7
20260509184131 86 269 1.0 3.0 0.00 0.00 0.00 62 1012.8
20260509183628 86 276 1.0 3.0 0.00 0.00 0.00 60 1013.1
20260509183118 87 278 2.0 2.0 0.00 0.00 0.00 63 1013.3
20260509182614 87 301 1.0 2.0 0.00 0.00 0.00 63 1013.5
20260509182111 87 292 3.0 3.0 0.00 0.00 0.00 62 1013.4
20260509181609 87 276 1.0 2.0 0.00 0.00 0.00 62 1013.2
20260509181106 86 221 0.0 2.0 0.00 0.00 0.00 67 1013.4
20260509180603 86 288 3.0 4.0 0.00 0.00 0.00 63 1013.4
20260509180100 86 277 1.0 2.0 0.00 0.00 0.00 66 1013.6
20260509175555 86 190 2.0 2.0 0.00 0.00 0.00 64 1013.6
20260509175052 86 264 2.0 2.0 0.00 0.00 0.00 64 1013.6
20260509174548 86 280 1.0 3.0 0.00 0.00 0.00 65 1013.7
20260509174043 86 283 2.0 2.0 0.00 0.00 0.00 68 1013.7
20260509173538 86 282 1.0 2.0 0.00 0.00 0.00 66 1013.8
20260509173035 86 256 1.0 3.0 0.00 0.00 0.00 67 1013.6
20260509172532 85 266 1.0 2.0 0.00 0.00 0.00 65 1013.9
20260509172028 85 294 2.0 3.0 0.00 0.00 0.00 63 1013.8
20260509171524 85 269 0.0 2.0 0.00 0.00 0.00 67 1013.7
20260509171021 85 278 1.0 2.0 0.00 0.00 0.00 68 1013.9
20260509170516 85 263 1.0 2.0 0.00 0.00 0.00 69 1013.7
20260509170012 85 259 2.0 3.0 0.00 0.00 0.00 67 1013.8
20260509165511 85 256 1.0 3.0 0.00 0.00 0.00 68 1013.7
20260509165006 85 274 2.0 2.0 0.00 0.00 0.00 67 1013.8
20260509164503 85 279 2.0 3.0 0.00 0.00 0.00 69 1013.8
20260509163958 85 249 1.0 2.0 0.00 0.00 0.00 71 1014.0
20260509163456 85 309 1.0 2.0 0.00 0.00 0.00 69 1013.9
20260509162955 85 257 1.0 2.0 0.00 0.00 0.00 70 1013.8
20260509162454 85 214 2.0 3.0 0.00 0.00 0.00 70 1014.0
20260509161950 84 252 2.0 2.0 0.00 0.00 0.00 73 1013.9
20260509161446 84 244 2.0 3.0 0.00 0.00 0.00 73 1013.9
20260509160942 83 291 1.0 2.0 0.00 0.00 0.00 73 1013.9